Location: Newark
(40.3820°N, 3.6624°W)
Time: 16:59:24
(UTC+00:00)

N. Korean satellite - Pass Details

Date: 23 November 2019
Orbit: 456 x 506 km, 97.2° (Epoch: 05 December)

Event Time Altitude Azimuth Distance (km) Brightness Sun altitude
Rises 18:08:52 0° 200° (SSW) 2,563 10.7 -14.5°
Reaches altitude 10° 18:11:20 10° 218° (SW) 1,695 10.1 -14.9°
Maximum altitude 18:14:04 20° 266° (W) 1,214 9.6 -15.4°
Drops below altitude 10° 18:16:50 10° 315° (NW) 1,720 9.8 -16.0°
Sets 18:19:23 0° 332° (NNW) 2,614 10.5 -16.4°
